Orbital Elements at Epoch 2459000.5 (2020-May-31.0) TDB
Reference: JPL 12 (heliocentric ecliptic J2000)
Element | Value | Uncertainty (1-sigma) | Units |
e | .1477035705809348 | 6.8343e-08 | |
a | 3.059139531854806 | 4.4505e-08 | au |
q | 2.607293700094562 | 2.2045e-07 | au |
i | 8.231526653800506 | 5.7762e-06 | deg |
node | 277.9785156573864 | 5.3384e-05 | deg |
peri | 48.4869224165415 | 5.6614e-05 | deg |
M | 318.8917859887638 | 2.3e-05 | deg |
tp | 2459223.663654264985 (2021-Jan-09.16365426) | 0.00012701 | TDB |
period | 1954.327558804563 5.35 | 4.2648e-05 1.168e-07 | d yr |
n | .1842065821454247 | 4.0198e-09 | deg/d |
Q | 3.51098536361505 | 5.1078e-08 | au |
|
| | Orbit Determination Parameters
Additional Information
|